loading
|

SL-8 DEB, 1549

Orbit data source: Space-Track

SL-8 DEB, 1549 is space debris in LEO originally from a launch on Mon, 15 Mar 1965 UTC launched from the Tyuratam Missile And Space Complex (TTMTR). Debris objects in space refer to the collection of defunct objects orbiting the Earth. Examples of debris include non-operational satellites, rocket bodies, and fragments generated from explosions, collisions, or faulty payload assembly.

Loading next visibility...
Loading greatness...
SL-8 DEB details
Identifier
1549, 1965-020CV
Orbit
LEO
Last TLE update20 hours ago
Origin
Flag of CISRVSN (CIS)
ManufacturerUnknown
MissionSpacecraft
Bus & MotorUnknown bus, Unknown motor
MassUnknown
Launch date (UTC)
1965-03-15 (60 years ago)
Launch vehicleUnknown
Launch site
Tyuratam Missile And Space Complex (TTMTR)
Object type
Payload
Rocket body
Debris
Shape & HBRUnknown
Radar Cross SectionMedium (>0.1 m² and <1 m²)

Expand to show TLE details & history

TLE from 20 hours ago
0 SL-8 DEB
1 01549U 65020CV  24280.86141964  .00004983  00000-0  66748-2 0  9994
2 01549  56.1668 216.0838 0847219 328.7861  26.5262 12.63822989736747
Epoch: 2024-10-06T20:40Z
Definitive object data (Epoch: 2024-10-06T20:40:26.656Z)
Latitude-0.00004°
Longitude-110.0246°
Altitude830.69 km
Speed7.709 km/s
True Right ascension14h 24m 20s
True Declination0° 00' 00"
Sunlit
Object was in daylight at TLE epoch
Predictive object data (real-time)
Latitude-25.88336°
Longitude86.50756°
Altitude1,684.394 km
Speed6.91 km/s
Apparent Right ascension01h 43m 56s
Apparent Declination-36° 43' 43"
Sunlit
Object is in full shadow
Predictive observer data (real-time)
Local Sidereal Time10:57:30
Azimuth262.068° W
Elevation-57.495°
Doppler factor1
Orbital elements
Apogee2,066.582 km
Perigee747.437 km
Semi-major axis7,785.146 km
Eccentricity0.0847219
Inclination56.1668°
RAAN216.0838°
Arg. of periapsis328.7861°
True anomaly31.30812°
Mean anomaly26.5262°
Eccentric anomaly28.86992°
Mean motion3.15968 °/min
BSTAR0.0066748
Period113.94 mins
No data available

SL-8 DEB Visibility forecast

Observer location: 39.9160978°, -105.1181434

SL-8 DEB is not visible in the next 10 days
Span
Click to sort rows by Start time (UTC) header in descending order
Start Az.
Max El. time (UTC)
Max El. Az.
Max El.
End time (UTC)
End Az.